Starlink 32027

operational
NORAD ID: 60143 Int'l Des: 2024-120 Owner: SPXS Country: US Constellation: starlink
LEOCIRCULAR

About Starlink 32027

Description loading...

Live Position

Loading 3D Globe...

Upcoming Passes

Altitude History

Altitude vs Time

uPlot chart will show altitude changes over time

Two-Line Element Set

1 60143U 24120J 26035.92284951 .00000361 00000-0 24313-4 0 9996
2 60143 53.1610 111.7807 0001170 93.4347 266.6788 15.30189404 91442
Epoch: Feb 4, 2026 • Age: 18 hours

Current Status

Altitude 478.2 km
Velocity 7.63 km/s
Sub-Earth Point -10.61°S, 83°W
Launch Date Jun 27, 2024
Age 1.6 years
Type internet

Technical Details

Classification Payload
Mass 730.00 kg
Dry Mass 700.00 kg
Total Mass 730.00 kg
Length 0.30 m
Diameter 4.10 m
Span 29.00 m
Shape Box + pan
Manufacturer SPXS
Bus Type Starlink V2M
Phase Status In Orbit
Owner/State SPXS/US

Large Constellations

Loading constellations...